Wind_Gust
6 4 2 1 4 3 5 10 8 10 5 9 8 6 15 4 7 10 10 5 8 4 6 7 4 5 8 8 11 13 10 8 5 20 16 8 7 11 18 21 18 20 19 18 16 16 16 18 20 22 22 23 22 23 22 24 24 24 24 23 24 23 23 23 22 21 23 22 21 22 22 23 23 23 23 23 23 24 23 23 23 22 22 23 23 23 23 23 24 24 24 23 22 23 23 22 21
4 3 1 1 1 3 5 6 10 4 6 7 16 3 12 4 3 11 6 3 4 6 2 2 9 11 12 14 16 8 12 13 4 6 8 7 13 14 16 19 19 22 19 18 17 16 14 16 19 21 23 24 23 23 23 23 24 24 24 24 23 23 23 21 21 21 21 21 22 20 21 21 21 23 25 23 22 23 20 22 23 22 21 22 22 22 22 23 24 24 23 22 22 22 21 20 19
3 4 3 3 7 8 6 8 6 3 4 13 15 15 3 3 12 15 4 7 7 8 8 7 2 4 3 3 8 5 4 7 11 7 15 11 20 14 15 16 17 20 20 17 18 17 14 15 18 21 24 23 23 23 23 23 23 24 24 22 22 22 22 22 21 20 20 21 21 20 21 20 22 23 23 22 22 22 20 19 23 22 21 21 21 22 23 23 23 23 23 22 21 22 20 19 18
6 1 6 7 5 9 8 6 8 12 6 13 14 12 10 8 13 3 8 8 9 8 8 7 9 7 2 13 9 7 11 8 4 11 24 18 10 16 16 15 15 18 17 17 16 16 15 17 18 21 24 23 23 23 23 23 23 23 23 22 21 21 21 20 20 19 19 20 20 20 21 20 20 20 21 21 20 18 18 18 20 22 22 21 21 21 22 22 22 22 21 22 21 21 20 18 17
2 2 4 6 12 5 8 7 7 7 14 13 10 7 5 5 9 8 5 6 13 12 8 6 5 9 4 7 2 6 6 10 10 4 17 7 14 15 16 16 18 18 18 17 16 15 16 22 20 20 22 24 23 22 22 24 24 23 22 20 21 21 20 20 19 19 19 19 19 19 19 18 18 19 20 18 16 18 18 18 18 20 20 20 20 20 20 20 20 21 21 21 21 20 19 17 15
5 4 5 6 5 8 14 4 5 12 11 8 6 10 5 5 5 5 12 8 15 8 7 5 7 4 11 9 5 9 10 14 10 6 13 15 18 19 18 16 19 18 16 16 15 14 17 20 19 20 21 24 22 22 22 23 23 22 22 21 20 21 20 19 19 19 19 19 19 19 18 17 19 20 19 18 16 15 16 17 20 20 19 20 20 20 20 21 21 20 20 20 20 18 17 16 14
7 8 10 7 7 12 10 6 9 11 16 9 12 17 13 9 8 8 13 13 5 3 5 6 10 10 12 8 9 8 8 9 12 11 7 17 17 17 16 16 18 18 16 16 15 14 17 19 20 20 21 22 22 22 21 22 22 22 21 20 20 20 20 20 19 19 19 19 18 18 18 17 19 19 19 18 18 19 20 21 21 19 18 18 19 19 20 20 20 19 19 18 18 16 16 15 14
3 7 5 8 6 4 3 3 13 8 12 10 7 11 16 14 6 9 11 5 13 9 4 11 6 11 4 6 8 8 11 5 9 11 15 15 15 15 14 16 18 18 17 15 13 13 19 19 20 20 22 21 21 21 21 22 21 21 20 20 19 19 19 19 19 18 17 18 19 18 18 18 19 19 18 18 19 19 20 20 20 18 17 18 18 19 19 18 18 18 17 16 16 17 16 16 14
7 12 2 11 4 5 3 9 13 5 13 10 18 15 20 17 10 9 13 9 6 4 9 10 7 9 8 10 7 7 6 6 13 15 16 14 14 13 13 13 19 19 18 17 15 13 14 17 19 20 21 21 21 22 21 21 20 20 20 19 19 16 17 18 18 18 17 15 16 17 17 17 17 17 17 17 19 18 17 18 17 17 17 18 18 17 17 17 18 18 18 17 17 18 18 16 15
6 5 5 9 9 4 5 14 4 10 9 6 9 20 15 18 11 7 13 9 10 3 4 4 5 12 13 11 8 4 4 9 17 15 12 13 13 12 12 11 13 20 19 19 17 16 14 20 19 19 19 20 20 20 19 18 18 18 18 18 17 16 17 17 15 16 16 16 16 17 17 17 17 16 16 17 18 18 17 18 17 17 16 16 15 16 16 16 16 17 17 17 17 17 18 17 15
8 11 6 9 5 4 9 13 8 11 7 10 16 19 17 16 10 11 8 10 7 9 5 12 13 18 11 7 5 6 4 9 19 18 12 12 10 12 13 12 14 14 20 18 16 16 17 16 22 18 18 19 18 17 17 17 17 17 17 17 17 19 18 16 15 17 17 17 17 18 18 18 17 17 17 17 17 15 16 17 17 17 16 14 14 14 14 14 14 16 17 17 17 17 17 15 14
6 5 5 7 7 12 10 9 9 13 11 7 13 9 3 11 9 8 5 8 6 7 10 5 19 20 13 7 6 4 6 8 8 13 12 11 11 11 13 15 14 15 15 19 16 14 14 16 15 20 20 18 17 17 17 18 18 18 18 18 17 17 16 15 15 16 16 17 16 15 15 16 17 17 17 17 16 16 15 15 14 15 15 14 13 14 13 13 14 15 16 16 16 16 16 14 13
9 4 8 9 7 3 5 4 10 6 11 11 7 12 11 10 10 8 10 8 10 13 8 4 23 8 12 8 8 6 8 7 10 10 10 10 11 13 13 14 14 16 15 15 16 14 14 13 15 15 17 21 18 17 18 19 18 18 18 18 17 18 17 17 16 16 17 16 16 16 15 15 16 16 17 17 16 16 15 14 13 13 15 14 13 13 13 13 14 15 15 15 15 15 14 13 12
13 11 10 7 2 5 5 8 3 7 13 7 3 8 13 15 10 6 12 9 6 8 3 18 13 12 11 12 9 9 7 9 12 11 11 10 11 14 14 14 13 15 14 14 16 15 13 12 12 13 16 16 15 18 20 20 19 19 18 18 17 16 16 16 16 17 16 17 18 17 16 16 17 16 16 16 16 15 14 14 15 15 15 14 14 13 13 13 13 13 14 14 14 13 13 12 10
3 5 9 5 5 2 8 10 3 5 14 3 6 8 16 10 7 7 5 12 5 3 13 10 17 11 16 19 13 16 14 14 14 14 13 13 11 12 13 12 13 12 13 13 13 13 13 12 12 11 12 12 12 12 13 19 20 19 19 18 16 16 16 17 18 17 18 17 17 18 17 17 16 16 15 15 15 15 15 14 15 15 15 15 14 14 12 11 12 13 13 13 13 12 11 9 8
8 8 7 6 9 7 14 6 3 2 21 2 7 8 16 13 10 11 11 5 11 7 7 15 3 6 12 11 14 20 18 17 16 17 18 17 12 10 11 12 12 11 11 12 12 11 12 12 10 12 13 12 11 11 12 12 19 21 19 18 18 18 18 17 18 18 19 18 19 18 18 16 15 15 18 15 16 15 13 11 14 13 14 14 13 13 11 10 11 12 12 11 10 10 10 10 9
4 10 5 5 12 8 10 10 10 11 11 7 5 15 18 19 9 9 8 15 12 6 11 9 7 5 13 8 21 23 19 19 19 20 18 17 17 14 11 12 11 11 10 10 10 12 12 13 12 13 13 13 14 13 12 12 15 20 17 19 18 17 17 18 16 18 17 16 15 14 12 10 8 10 12 10 14 11 11 14 13 14 14 14 13 11 10 10 11 11 10 9 10 11 11 11 11
6 9 10 6 13 6 10 9 13 3 9 11 14 8 7 11 12 9 8 15 10 14 13 9 15 14 14 20 22 20 21 22 21 22 20 19 16 18 17 16 17 15 13 12 10 11 13 11 13 13 14 14 15 13 12 12 13 14 10 10 10 14 15 15 13 11 12 10 15 12 9 9 8 8 9 11 9 10 12 14 14 14 14 13 13 12 11 9 9 9 10 11 12 12 11 9 8
8 8 8 18 10 14 9 6 5 7 11 12 12 3 5 9 7 7 9 9 8 13 10 10 16 18 19 19 19 20 21 21 19 20 24 23 21 20 18 19 16 14 15 12 12 11 10 11 12 13 12 14 14 12 12 11 10 9 9 10 10 12 10 12 7 10 8 10 9 9 9 8 7 6 8 10 10 12 13 15 15 14 14 14 13 12 11 9 7 8 10 11 11 11 9 8 7
9 13 9 20 9 5 6 6 10 7 9 14 15 5 7 13 9 2 8 7 8 11 19 14 19 23 23 20 20 18 21 20 19 21 23 22 21 23 21 21 17 16 15 14 15 11 10 10 13 13 14 15 14 13 12 11 10 10 10 9 9 9 9 10 9 9 9 9 9 8 8 8 7 5 11 15 12 8 11 14 15 14 14 14 13 9 10 10 10 10 10 11 8 7 8 7 8
7 7 17 14 6 5 7 3 7 9 5 10 8 10 12 9 7 4 12 9 12 11 14 22 24 28 23 23 21 20 23 20 16 18 20 20 22 20 22 22 21 18 16 15 12 12 9 11 14 13 14 15 13 13 13 12 12 11 10 9 9 9 9 9 9 9 9 9 9 8 8 8 8 8 8 8 8 8 8 8 9 9 8 8 9 8 6 6 7 6 6 7 7 7 8 6 7
9 15 15 5 6 8 5 7 10 8 6 5 6 13 12 7 6 4 16 12 15 20 22 13 26 28 31 25 21 18 23 22 20 15 14 16 16 14 12 12 13 13 13 12 14 14 10 13 13 13 13 13 13 12 13 16 14 12 10 11 10 9 10 9 9 9 9 8 8 8 9 9 9 9 8 8 8 8 8 8 8 8 8 7 6 7 5 6 5 5 5 7 6 7 7 6 5
9 10 10 8 8 11 5 8 13 7 11 10 11 6 6 4 11 7 14 18 9 2 7 13 23 25 21 20 23 19 19 23 20 18 16 18 17 13 13 13 16 16 16 11 12 14 13 12 13 14 14 14 13 12 13 12 11 10 11 10 11 10 10 10 9 8 8 8 8 8 10 9 9 9 8 7 8 7 7 7 7 7 7 7 5 7 6 6 5 5 6 6 5 6 6 6 5
6 20 4 6 3 8 9 12 14 11 5 13 11 7 11 8 9 7 9 15 6 8 15 18 19 16 20 23 20 17 18 21 20 17 13 14 17 18 16 16 12 10 14 13 13 14 14 12 13 14 13 13 13 13 11 11 10 11 13 15 11 14 11 11 9 8 8 8 7 7 9 9 11 9 7 8 7 7 7 6 6 8 7 6 5 7 7 5 5 5 5 5 7 6 6 5 6
8 16 4 7 6 8 8 9 11 12 13 11 6 9 17 3 9 3 9 11 5 14 18 18 19 17 17 12 15 15 17 18 16 17 11 9 9 11 11 10 10 13 13 14 13 13 12 14 14 14 13 12 12 12 12 11 12 11 11 12 11 14 10 11 10 9 8 7 6 7 10 11 9 8 8 7 6 7 7 7 6 7 7 6 6 6 6 6 5 4 5 5 6 6 4 6 6
13 12 8 8 9 10 8 9 12 13 14 4 7 12 15 6 7 5 8 3 10 15 18 21 21 18 17 15 18 17 14 15 17 18 15 15 13 15 12 11 12 15 11 12 14 13 11 13 16 14 12 13 11 11 11 14 13 11 12 11 11 13 10 10 9 8 7 8 7 6 7 9 9 9 8 6 8 7 7 7 7 7 8 6 6 7 4 5 6 4 4 5 6 5 5 5 5
7 5 6 9 11 8 6 6 9 6 7 4 9 14 15 3 9 12 1 8 15 16 18 19 20 20 17 13 16 15 15 15 18 15 16 15 19 20 16 12 13 14 12 13 14 13 12 13 14 13 13 12 10 11 13 13 12 11 11 9 10 12 11 11 9 8 7 7 7 7 7 7 9 8 9 8 7 7 6 6 6 6 6 6 5 6 4 5 5 5 4 4 5 5 6 6 6
3 8 5 6 8 5 9 7 14 5 13 7 11 11 8 4 4 13 10 11 16 22 21 23 20 17 17 14 14 12 15 14 16 20 16 15 17 21 17 20 17 14 15 14 14 13 14 14 13 12 14 14 13 14 14 13 11 11 11 9 11 10 11 10 9 8 8 7 7 8 7 8 9 8 10 9 8 7 6 5 5 5 5 5 6 6 6 5 5 5 5 5 6 5 6 6 6
6 1 8 9 8 13 4 9 9 5 13 3 8 3 10 4 8 8 13 14 16 18 22 23 22 18 15 12 11 10 19 15 19 22 22 21 15 11 18 17 18 16 11 15 15 16 16 15 14 14 15 15 15 17 16 13 11 12 10 10 11 11 11 9 8 7 6 6 7 7 8 9 8 9 7 8 9 7 7 6 5 5 5 5 5 6 7 5 5 5 6 6 6 6 7 7 8
2 1 4 9 9 13 10 5 5 3 10 6 7 14 11 13 10 7 16 18 16 19 20 23 20 17 13 13 10 13 21 18 19 20 21 20 23 23 21 19 16 15 16 16 15 19 18 12 12 13 16 16 15 13 12 11 12 11 9 9 10 10 9 10 9 6 7 7 7 6 7 8 9 8 9 7 6 7 7 7 6 5 4 5 6 6 6 6 6 7 7 7 6 6 6 6 7
7 7 3 7 5 13 9 4 3 3 6 5 5 9 15 16 8 10 16 20 25 23 21 22 20 17 14 13 12 13 17 15 18 11 10 15 18 20 22 18 18 16 16 16 21 21 15 12 13 12 17 14 16 14 15 13 11 11 10 9 10 9 9 9 8 7 7 7 7 6 6 7 7 8 7 9 6 6 6 5 5 5 5 6 6 5 6 5 6 6 6 7 6 6 7 8 8
4 7 13 9 7 12 17 8 4 5 7 2 6 5 15 15 2 12 17 17 17 23 22 21 19 15 14 14 13 12 18 13 17 16 13 11 12 18 23 24 21 19 20 19 17 16 15 12 15 14 15 13 13 13 12 12 11 9 9 10 10 10 9 9 8 8 7 7 7 6 5 5 6 6 6 6 7 6 7 6 5 5 7 7 6 5 5 6 6 6 5 6 7 6 7 8 8
10 5 7 8 2 7 10 2 3 4 7 2 6 14 8 10 4 10 16 18 18 19 22 20 17 14 14 13 11 11 16 16 15 17 16 15 13 10 16 20 23 21 18 17 18 15 14 13 16 14 14 12 12 11 11 9 10 10 10 10 11 10 9 8 8 7 7 7 7 7 5 5 4 6 6 5 7 6 6 6 6 7 7 7 7 5 5 5 7 7 5 4 5 7 7 8 9
7 4 5 6 3 4 6 15 2 6 3 5 5 5 9 9 5 11 14 17 17 18 23 20 18 13 12 12 13 12 15 19 23 18 16 15 15 11 12 14 17 17 16 16 15 16 14 13 12 13 12 11 10 11 11 10 9 10 10 10 10 10 9 8 8 8 8 7 8 7 6 6 5 5 6 6 5 5 5 6 7 8 7 7 6 5 6 6 6 7 6 5 6 7 8 9 11
4 3 4 9 4 5 7 5 7 15 5 3 4 3 9 16 3 10 20 17 15 19 23 22 19 13 13 14 14 16 15 20 21 14 13 14 12 13 14 13 14 14 14 15 13 12 10 9 9 11 13 12 11 11 11 11 11 9 9 10 10 10 8 7 7 8 8 7 6 7 7 7 7 6 6 6 7 6 6 6 8 7 8 7 7 6 6 7 7 6 7 7 8 9 9 8 11
3 4 4 4 8 12 7 9 10 2 8 11 4 8 11 14 3 9 11 19 20 19 15 11 12 9 11 13 15 16 16 16 14 12 12 11 11 13 12 12 12 12 11 13 13 13 11 11 9 8 9 12 11 10 11 12 10 11 10 9 9 10 9 8 6 7 7 7 7 8 7 6 7 8 7 7 7 7 7 8 8 7 8 8 8 7 6 7 8 9 7 8 10 10 9 9 11
2 3 2 7 9 16 5 5 10 1 7 9 10 7 8 11 9 14 18 17 17 12 13 16 15 14 15 17 17 18 15 16 13 14 12 12 12 12 12 12 12 11 10 12 14 14 11 14 13 10 9 9 12 12 11 13 13 12 8 9 8 8 10 7 7 7 7 8 8 8 7 7 6 7 7 7 7 8 7 6 6 6 7 7 8 9 8 7 8 8 8 7 8 7 7 8 9
4 4 4 12 6 18 9 7 6 5 7 9 5 5 11 14 11 13 12 18 20 19 19 19 17 16 16 19 20 18 15 9 12 14 13 13 14 14 13 13 13 15 13 14 15 14 12 14 15 12 10 10 10 11 11 11 10 12 11 9 9 9 10 10 7 6 7 7 7 7 7 6 6 7 7 6 7 8 8 7 7 6 7 6 6 6 6 7 7 9 8 8 7 7 7 8 8
2 6 5 8 14 9 11 8 4 2 8 14 3 3 14 15 12 7 16 25 28 28 27 28 25 20 20 22 21 17 17 19 18 15 12 16 16 16 15 14 12 13 13 13 10 11 12 13 13 12 12 11 10 11 12 11 8 9 9 10 10 8 4 5 8 7 7 8 6 6 6 6 7 6 6 7 9 7 8 8 7 6 7 8 7 6 6 7 8 10 8 9 8 6 6 6 6
4 3 5 18 7 7 17 10 2 3 6 11 11 11 19 14 8 12 19 27 25 26 26 25 27 28 25 28 26 24 23 27 25 23 18 19 19 17 15 15 14 11 12 10 9 11 12 11 11 12 13 10 11 10 10 9 9 7 7 10 8 7 8 7 9 8 8 8 7 6 5 7 7 7 6 7 7 8 8 8 7 6 7 8 9 8 7 7 8 7 8 9 11 9 7 8 5
4 7 9 10 4 8 13 13 10 8 8 4 5 7 16 8 7 7 10 13 14 17 8 5 6 11 11 10 12 18 23 22 20 17 18 20 22 21 20 16 11 11 11 12 10 11 13 13 11 12 12 12 10 10 11 12 13 11 11 10 10 11 10 8 9 8 6 5 5 4 7 5 6 8 6 6 6 8 6 7 8 6 6 5 6 7 7 8 8 8 9 10 9 10 8 8 7
7 10 16 11 9 12 10 6 8 16 14 4 3 14 15 8 10 13 11 10 14 8 16 17 17 17 20 21 19 18 19 21 25 23 23 26 23 16 15 14 11 10 12 11 10 11 13 13 11 11 11 10 12 11 12 13 13 15 14 14 11 9 9 9 8 9 5 6 8 3 2 3 6 6 6 6 5 7 6 5 6 7 6 5 6 7 6 6 6 8 9 10 9 5 8 8 9
5 17 14 17 17 12 8 7 5 5 8 5 4 6 24 11 7 8 9 8 8 7 14 13 16 19 20 22 21 23 25 22 18 17 18 19 18 16 16 16 13 11 9 9 9 10 11 10 11 11 11 11 11 11 11 13 12 12 12 12 11 13 13 6 3 5 9 4 5 5 4 3 2 7 6 5 6 5 6 6 7 6 7 7 6 6 7 8 8 8 7 8 9 9 8 8 8
14 11 14 12 8 7 11 7 8 14 6 9 4 7 12 21 13 5 8 3 8 8 11 16 19 19 20 22 20 21 25 23 25 24 21 22 20 19 21 19 12 9 9 9 9 8 10 11 11 11 11 11 10 11 10 12 14 11 10 9 11 12 12 10 8 7 5 7 8 5 5 4 4 5 8 6 7 7 8 7 7 7 8 7 8 9 9 7 6 5 7 6 8 9 9 10 8
18 4 14 12 14 14 7 7 8 6 3 20 6 1 7 11 12 7 6 7 6 11 16 19 19 21 22 22 23 25 25 23 22 23 25 24 22 21 20 13 10 11 11 12 10 8 8 9 10 10 11 10 10 9 11 9 12 12 12 12 10 7 10 10 8 7 9 7 9 4 6 4 5 5 5 7 7 8 7 8 7 7 6 6 6 7 6 8 9 9 7 7 9 8 8 6 9
14 7 4 4 4 3 6 6 5 4 4 14 11 5 9 15 11 6 7 2 11 15 15 17 21 21 22 25 20 21 21 18 19 22 21 20 19 15 8 10 10 10 10 11 10 9 9 8 10 10 10 10 8 8 9 8 10 12 13 11 13 10 10 9 9 10 8 7 10 6 5 7 6 6 6 4 5 6 7 7 7 6 5 4 4 5 6 5 5 7 7 7 7 8 8 9 10
5 10 4 4 10 5 5 8 6 6 8 17 11 6 6 12 7 6 7 11 7 3 7 10 13 14 15 17 19 18 21 21 20 19 17 16 10 8 10 11 10 10 10 12 12 12 11 10 9 11 9 9 8 8 8 9 9 11 13 12 14 13 11 13 12 9 8 7 11 6 7 5 4 5 4 5 4 5 6 6 8 7 6 6 7 6 5 6 4 5 4 3 5 7 9 9 8
4 6 5 5 3 9 6 8 9 10 16 18 7 7 8 10 7 11 12 8 7 13 19 21 21 19 19 21 18 15 15 18 16 16 13 12 10 8 9 11 11 10 11 12 12 13 13 11 10 10 10 11 9 8 9 9 11 10 11 13 14 15 15 13 14 12 10 10 9 10 5 7 4 4 5 6 5 5 7 7 6 6 8 7 7 6 5 6 6 5 5 4 4 2 6 10 9
8 7 8 7 8 6 10 6 11 13 20 9 2 8 6 11 11 3 11 14 10 14 20 25 26 23 19 17 17 19 14 15 12 12 11 13 12 10 7 7 10 10 10 12 14 13 13 13 12 11 10 9 10 9 9 9 9 10 12 12 12 14 14 13 13 12 9 11 10 10 8 8 5 6 3 6 3 5 7 9 7 8 7 7 7 7 6 6 6 6 5 5 4 5 6 9 10
11 12 12 10 8 5 6 9 8 12 15 8 3 2 8 8 8 6 13 16 14 13 16 9 7 14 19 15 15 14 12 11 12 22 20 14 8 3 5 6 7 10 9 13 15 14 14 14 13 12 9 9 10 9 10 9 9 10 10 12 13 14 13 14 13 15 11 11 12 13 11 11 10 9 7 6 7 7 5 5 7 7 7 7 7 7 7 5 5 7 5 5 4 3 4 6 8
19 8 22 17 19 17 11 11 13 15 14 6 5 7 11 4 9 8 11 13 15 12 11 6 9 10 10 14 16 18 18 18 19 15 14 5 4 3 6 7 8 10 14 12 12 13 15 14 14 12 11 8 10 11 11 11 10 10 9 11 13 12 15 14 13 14 14 12 8 11 9 8 10 8 9 6 6 7 7 7 6 8 7 7 7 7 8 8 6 8 6 6 5 4 4 5 6
4 7 11 12 13 14 10 13 8 6 6 5 7 11 4 10 5 7 6 8 9 8 10 13 13 13 15 17 18 16 16 19 20 18 12 9 8 6 7 8 9 12 13 10 12 13 14 14 11 10 10 10 10 9 9 10 9 10 9 10 10 11 11 11 10 9 10 11 11 11 10 8 7 8 4 5 4 7 9 8 7 7 6 6 6 8 8 8 7 9 7 5 6 5 5 7 5
10 9 13 16 7 15 10 4 3 6 9 8 5 13 10 13 5 4 7 7 9 9 10 11 13 14 17 17 16 13 13 13 18 18 14 12 9 6 8 8 10 14 17 18 15 9 12 15 12 10 8 7 14 9 8 7 9 10 9 10 11 11 14 14 14 11 10 7 8 8 10 7 5 5 6 4 7 4 6 9 9 7 5 5 7 7 9 9 9 8 8 6 7 6 7 8 7
16 10 15 5 5 10 13 13 6 6 8 13 4 4 10 8 11 6 7 10 9 7 8 8 8 10 15 15 17 17 21 19 8 11 11 10 8 8 7 6 10 15 18 15 11 7 11 13 16 13 11 13 12 10 8 7 9 9 10 10 10 14 14 12 12 12 9 10 5 6 7 8 6 5 5 5 5 7 6 7 9 7 5 5 6 7 8 9 9 9 7 7 6 4 7 8 8
12 11 11 14 9 6 7 13 5 6 10 8 5 2 8 7 10 8 9 14 14 13 12 12 12 10 9 10 14 17 16 14 13 10 11 10 9 9 9 8 8 16 15 12 11 11 14 14 15 14 17 17 17 16 9 5 5 10 11 12 12 9 8 10 10 10 10 10 9 7 6 7 7 6 8 7 7 7 6 6 6 7 6 5 6 7 8 9 8 9 7 8 6 6 8 9 7
4 5 8 3 11 6 11 16 10 15 8 5 8 2 11 12 9 3 9 11 8 9 11 15 16 18 18 22 16 16 16 15 16 14 13 12 10 9 10 13 15 18 18 16 15 17 16 15 16 18 20 18 18 17 14 10 7 10 9 9 7 10 11 12 11 12 10 9 9 8 7 6 8 8 8 7 8 7 7 7 5 7 7 6 7 6 8 9 10 9 7 8 6 6 9 8 6
4 6 5 4 6 7 11 5 5 8 14 11 11 8 16 9 5 7 9 8 5 7 9 10 14 16 20 20 16 17 17 16 15 13 13 11 10 11 11 9 9 11 16 17 16 18 16 17 16 14 17 18 17 18 15 10 10 8 11 12 11 9 8 8 9 9 11 9 8 8 7 8 8 7 9 8 7 7 7 7 8 6 7 7 7 6 6 8 9 8 8 7 6 7 9 6 7
10 17 11 14 11 8 5 9 3 6 9 11 12 15 15 10 5 5 6 6 6 7 9 10 10 17 24 22 18 16 14 11 13 10 10 9 9 8 10 10 7 9 12 14 13 15 13 16 17 16 16 15 14 14 15 13 9 12 11 9 9 9 9 9 10 10 11 10 9 8 7 7 8 7 9 9 7 5 6 8 7 7 7 8 7 7 6 7 9 8 6 6 6 7 7 6 6
Wind_Speed
4 3 1 1 2 2 2 4 1 2 2 4 3 1 4 2 3 5 4 2 2 1 1 4 1 2 3 3 6 8 6 3 2 8 6 1 3 5 11 13 12 12 13 11 10 10 11 14 17 17 17 19 18 18 18 19 20 19 19 19 19 18 18 17 16 17 18 18 17 18 18 18 18 19 19 19 19 19 18 18 17 17 18 18 18 18 18 18 19 19 18 17 17 17 17 16 15
2 2 0 0 0 1 0 1 4 2 3 3 8 1 5 2 2 7 1 1 1 1 1 0 1 6 7 7 10 4 7 6 2 1 3 3 7 6 10 12 12 14 12 11 10 10 9 11 16 17 18 19 19 19 19 19 19 20 19 19 19 18 18 17 16 16 17 17 17 17 17 16 16 18 19 18 18 19 16 17 17 17 17 17 18 18 18 18 18 18 18 17 17 16 16 15 14
2 3 2 1 3 3 2 3 0 1 1 7 7 7 1 1 7 1 2 5 4 5 5 4 2 1 1 1 3 3 1 3 5 3 5 6 10 7 10 11 11 13 13 10 10 10 8 10 14 17 19 19 18 19 19 19 19 19 19 18 17 17 17 17 17 16 16 17 16 16 15 16 18 18 18 18 18 18 16 16 17 16 17 17 17 17 18 18 18 17 17 17 16 16 15 14 13
4 0 3 3 0 3 2 3 5 6 2 7 6 6 3 3 3 1 5 6 5 5 2 2 3 1 1 8 2 2 5 3 0 6 7 7 2 9 9 10 11 10 10 9 9 9 9 12 15 17 19 19 19 19 19 19 19 19 18 17 17 17 17 16 15 15 15 16 16 17 16 16 16 17 17 17 17 15 15 15 16 17 17 17 17 16 17 18 17 17 16 16 16 15 14 13 12
1 1 2 2 4 1 2 1 3 4 6 5 4 2 3 3 6 4 3 3 8 8 4 1 2 3 2 4 0 1 2 6 6 1 4 3 8 9 10 11 11 10 10 10 9 9 10 18 16 16 18 20 19 18 18 20 19 19 18 16 17 17 16 16 15 15 15 15 15 15 16 14 14 16 16 14 14 15 15 15 15 16 16 16 16 16 16 16 16 16 16 16 15 14 13 12 10
3 2 3 2 0 2 4 1 1 6 6 4 2 3 2 3 3 3 7 5 10 6 4 3 2 1 5 4 1 2 4 3 2 2 4 7 11 12 11 10 10 10 10 9 9 8 10 16 16 16 17 19 18 18 18 18 19 18 18 17 17 17 16 15 15 15 14 15 15 15 14 14 16 16 15 14 13 12 12 14 16 15 15 16 16 15 16 17 16 16 15 15 15 13 12 10 9
1 3 4 3 2 4 4 3 6 6 8 5 4 8 5 5 4 5 7 8 2 1 3 3 5 4 4 1 3 2 5 4 3 2 2 8 11 11 10 10 11 11 11 9 8 8 11 15 16 16 17 18 18 18 17 18 18 18 17 16 16 16 16 15 15 15 15 14 14 14 14 14 15 16 15 15 15 16 17 17 16 15 15 15 15 15 15 15 16 15 15 14 13 12 12 10 9
1 2 1 3 1 1 0 2 7 3 5 6 4 5 8 7 4 4 7 1 5 2 1 5 3 5 1 4 0 3 7 3 6 8 10 9 10 10 9 9 10 11 11 9 8 8 14 15 16 17 18 17 17 17 17 17 17 17 16 16 15 15 15 15 14 14 14 14 14 14 14 14 15 15 14 14 15 16 16 16 16 14 14 15 15 15 15 15 15 14 13 13 13 13 12 11 10
3 5 0 4 1 2 1 5 6 2 6 4 10 8 12 8 6 4 8 4 3 2 5 5 4 5 3 4 2 5 3 3 9 10 10 10 10 9 7 8 11 11 11 10 9 8 9 13 15 16 17 17 17 18 17 17 16 16 16 15 15 13 14 15 14 14 13 12 13 13 14 14 14 14 14 14 15 14 14 15 14 13 14 14 14 14 13 14 14 14 14 13 13 13 12 11 10
2 2 1 2 3 2 2 6 1 5 4 3 5 12 8 6 6 5 8 6 6 2 2 3 2 8 8 5 1 3 2 4 11 10 8 9 9 8 8 7 9 14 11 11 10 10 8 15 14 15 16 16 16 16 16 14 15 15 15 15 13 13 13 13 12 13 13 13 13 13 13 13 13 13 13 14 14 14 14 14 13 13 13 13 13 13 13 13 13 13 13 13 14 13 12 11 11
0 4 2 3 2 0 4 7 4 5 4 5 10 11 9 7 5 4 5 7 4 4 3 8 7 12 6 3 1 3 2 3 10 10 7 7 6 8 8 8 9 9 13 11 9 9 10 10 17 14 15 16 15 14 14 14 14 14 14 14 13 14 14 13 13 14 14 14 14 14 14 14 13 13 13 14 13 12 13 14 14 13 11 11 11 11 11 12 12 13 13 13 13 13 12 10 10
1 0 1 3 2 6 5 4 5 6 7 3 5 4 1 4 3 2 3 5 2 4 6 3 7 10 8 3 0 1 4 6 5 7 8 6 6 7 8 8 9 9 8 11 9 8 9 10 10 15 16 15 14 14 14 15 15 15 15 15 14 14 13 13 13 13 13 13 13 13 12 12 14 14 13 13 13 13 13 12 12 12 11 11 11 11 11 11 11 12 13 13 13 12 11 10 9
3 1 5 4 2 1 2 2 5 3 5 4 3 4 6 6 5 5 6 5 5 9 3 2 14 4 5 3 1 3 5 5 6 7 7 6 6 7 8 9 8 10 10 8 9 8 9 8 8 9 12 17 15 14 15 16 15 15 15 15 14 14 14 14 14 13 13 13 13 12 11 12 12 13 14 14 13 13 12 11 10 11 12 11 11 11 10 11 11 12 12 12 11 11 10 9 8
5 5 4 1 0 2 2 2 1 3 6 3 1 5 6 5 5 3 1 5 3 4 1 11 6 7 6 5 2 4 4 6 8 8 6 7 6 7 8 8 9 9 9 9 8 8 8 7 7 8 10 9 9 13 16 16 15 15 14 15 14 14 13 13 13 14 13 13 14 13 12 13 13 13 13 13 13 12 12 12 12 12 11 11 10 11 10 10 10 11 12 11 10 9 9 8 7
1 2 3 2 1 1 3 2 1 3 7 0 1 5 8 5 4 4 4 3 2 1 6 3 4 6 6 10 4 7 8 10 9 10 9 9 8 6 6 7 8 8 8 8 7 7 8 7 7 6 7 7 8 7 8 12 16 15 15 15 13 13 13 14 14 14 14 13 13 14 14 14 13 13 12 12 13 12 12 12 13 12 12 11 11 10 10 9 9 10 10 10 9 7 7 7 6
3 3 2 2 4 3 4 2 2 0 8 0 3 4 7 5 4 5 5 2 1 2 2 4 1 1 4 7 7 12 12 12 10 11 11 11 8 6 6 7 8 7 6 7 7 6 7 7 6 7 7 7 7 7 8 8 14 17 15 15 14 14 14 14 15 15 15 15 15 14 14 11 11 10 14 11 13 12 11 9 11 11 11 11 11 9 8 8 9 10 9 8 7 7 8 7 6
2 4 1 2 6 4 3 4 5 3 5 2 3 8 6 5 3 4 4 10 6 3 5 5 3 3 6 2 13 15 12 12 11 12 12 10 9 9 6 6 6 7 5 6 6 6 7 8 8 7 8 9 9 8 7 7 10 15 13 15 14 14 13 14 13 15 14 13 11 11 10 6 5 6 7 6 11 7 9 11 11 11 11 10 9 8 7 8 9 9 8 7 8 8 7 8 7
2 2 4 2 6 2 4 4 6 1 3 6 9 5 5 7 5 3 4 8 5 7 8 5 10 8 8 11 13 13 13 14 14 15 12 11 8 9 8 9 9 9 7 6 6 6 7 6 8 8 8 9 9 7 6 6 7 10 7 7 6 9 11 12 9 7 8 6 11 8 6 5 5 5 6 7 6 7 8 12 11 11 11 10 9 9 8 7 7 7 8 9 8 7 7 5 5
3 2 3 9 4 5 6 2 3 3 6 7 5 3 3 5 4 2 3 4 5 3 5 6 10 11 12 13 12 14 14 13 12 12 15 16 12 12 10 10 9 9 9 7 6 6 5 5 7 8 8 9 9 7 6 6 6 6 6 6 6 8 7 7 5 6 5 6 5 5 5 5 4 4 5 6 6 10 9 12 12 11 11 11 10 9 7 6 6 6 8 8 7 7 5 5 4
3 6 3 10 4 2 4 3 6 4 6 7 9 2 4 9 2 0 2 4 3 5 8 8 12 13 15 12 12 12 14 13 11 12 14 15 12 13 13 13 11 10 9 7 8 6 5 5 7 7 9 10 8 7 6 6 6 6 6 5 5 5 5 6 6 6 6 5 5 5 5 5 4 4 8 11 8 5 7 11 12 11 12 11 10 6 7 6 7 7 7 7 5 4 4 4 4
1 2 7 4 3 1 2 1 4 6 2 5 5 5 7 5 3 1 5 4 6 6 9 12 16 18 15 15 13 14 14 14 11 10 11 12 10 8 10 12 12 10 9 8 7 7 5 6 8 8 9 9 9 7 7 6 6 6 6 5 5 5 5 5 5 5 5 6 5 4 5 5 5 5 5 5 4 5 5 5 5 5 5 5 6 4 3 4 4 4 4 4 4 4 5 4 4
3 8 7 1 3 4 3 4 7 4 5 2 4 8 6 4 3 2 8 6 7 9 12 7 13 18 20 17 13 11 17 15 13 11 10 10 11 9 7 6 7 7 8 7 9 8 6 8 8 7 8 8 8 7 7 8 8 6 6 6 6 5 6 6 5 5 5 5 5 5 6 6 5 5 5 5 5 5 5 5 5 4 5 4 3 3 3 3 3 3 3 4 3 4 4 4 4
3 5 6 4 5 5 2 4 7 3 4 6 6 3 3 2 6 4 8 10 3 1 5 9 14 16 14 14 14 13 14 17 14 12 10 11 11 9 8 7 8 10 8 7 7 8 7 8 8 8 8 8 8 7 7 6 6 5 6 6 6 6 6 6 5 5 5 5 5 5 6 5 5 5 5 5 5 4 4 4 4 4 4 4 3 4 3 3 2 2 3 3 3 4 3 3 4
3 8 1 3 2 4 7 8 8 6 2 7 4 4 5 3 6 2 4 9 1 2 10 12 13 10 13 13 11 12 13 15 14 10 9 10 12 12 10 9 7 6 7 8 7 8 8 7 8 9 7 7 7 7 6 6 6 7 7 8 6 7 6 7 6 5 5 5 4 4 6 6 6 5 5 5 4 4 4 4 3 4 3 3 3 3 3 2 2 2 3 4 4 3 3 3 3
4 7 1 3 3 4 5 5 7 7 7 7 4 4 11 1 4 1 4 4 3 8 10 12 13 11 12 8 10 11 11 12 11 11 6 5 6 7 7 6 6 8 7 8 7 7 7 8 8 8 7 7 6 7 6 6 6 6 6 7 6 8 5 7 6 6 5 4 4 5 6 6 5 5 5 4 4 4 4 4 3 3 4 3 3 3 3 2 1 1 2 3 3 3 3 4 3
6 6 3 4 5 6 5 6 8 9 6 1 4 7 5 4 3 2 4 1 7 10 9 12 12 12 10 10 10 10 9 10 10 10 8 9 9 10 8 7 7 9 5 7 8 7 6 7 9 8 7 6 6 6 6 7 7 6 6 6 6 7 6 5 6 5 4 4 4 4 4 5 5 5 5 3 5 4 4 4 3 3 4 2 3 3 1 2 2 1 1 2 2 2 3 3 3
3 3 4 5 7 4 4 3 6 4 3 2 4 9 4 1 3 5 0 6 10 11 12 13 13 13 10 9 10 7 7 6 5 1 5 9 12 12 10 8 8 9 7 8 8 7 7 8 8 7 7 7 6 6 7 8 6 6 6 5 6 7 7 5 5 4 4 4 4 5 4 5 5 5 5 4 4 4 3 3 3 3 3 2 2 2 1 2 2 2 1 1 2 2 2 2 3
1 4 3 4 5 3 6 5 10 3 5 4 7 7 0 2 1 7 3 7 11 14 14 14 12 11 9 9 8 7 7 7 7 7 7 7 4 3 9 10 10 9 9 8 8 8 8 8 8 8 8 8 7 8 8 8 7 7 6 5 6 6 6 5 5 5 4 4 4 5 4 4 5 5 5 5 5 4 3 3 2 2 2 2 3 2 3 2 2 2 2 2 2 2 2 3 3
4 0 4 6 5 4 2 4 5 3 5 1 5 1 5 1 5 4 7 10 11 12 14 14 13 10 9 7 5 6 8 5 3 10 13 12 10 5 4 6 9 9 6 9 9 10 10 9 7 8 8 9 9 10 9 8 6 7 6 6 6 6 6 5 5 4 4 4 4 4 5 5 4 5 4 5 5 4 3 3 3 2 2 2 2 3 4 2 2 2 3 2 2 2 3 3 4
1 0 1 5 5 7 6 2 2 1 4 3 5 5 6 6 6 2 11 11 11 12 12 14 12 10 7 7 6 8 14 9 11 9 7 10 13 14 14 12 9 9 8 8 9 11 8 5 5 6 8 8 10 8 7 7 7 6 5 5 6 6 5 5 4 4 4 4 4 4 4 5 5 4 5 4 4 4 3 3 3 2 2 2 2 3 3 3 3 3 2 2 3 2 2 2 3
2 3 1 1 3 4 5 1 2 1 2 4 4 4 8 10 5 5 10 13 16 14 13 14 11 9 7 7 7 8 11 8 2 4 4 7 5 11 14 12 11 10 9 9 12 11 9 7 7 6 10 8 10 9 10 9 7 6 5 5 5 5 5 5 5 4 4 4 4 3 4 4 5 5 4 5 4 4 4 3 3 2 3 3 3 2 3 2 3 3 2 3 2 2 3 4 4
2 3 5 4 2 5 11 4 2 1 2 1 3 1 7 9 1 6 10 11 11 14 14 14 11 8 8 7 8 7 11 8 12 10 8 7 7 8 13 16 13 12 12 10 9 9 8 8 8 8 9 8 7 8 7 6 6 6 5 6 6 6 6 5 5 4 4 4 4 4 3 3 4 4 4 4 4 4 4 4 3 2 3 3 2 2 2 3 3 3 2 2 3 2 3 4 4
5 1 3 2 1 3 5 1 2 2 2 1 1 5 4 4 2 6 9 10 11 12 13 13 11 9 8 6 6 7 11 11 9 11 11 9 8 5 6 9 13 13 10 9 10 9 8 8 9 8 9 8 8 7 6 6 6 6 6 6 6 6 6 5 4 4 4 4 4 4 3 3 3 4 4 4 4 4 4 4 2 4 3 4 3 2 2 2 3 3 2 2 2 3 3 4 5
3 1 1 2 1 1 0 9 1 5 2 3 3 1 5 5 2 3 8 10 9 10 13 12 10 7 7 7 7 7 9 11 13 12 11 10 9 7 7 8 7 8 9 8 8 8 7 7 7 7 6 6 6 6 7 6 6 6 5 6 6 6 5 4 5 4 4 4 4 4 4 3 3 3 4 4 4 3 3 3 4 5 4 4 3 2 2 3 3 3 3 2 3 3 4 5 6
1 0 1 4 1 2 4 1 3 10 4 2 3 1 6 8 2 7 13 11 10 12 12 13 11 8 7 7 8 9 9 13 13 8 9 9 8 7 8 8 7 7 6 7 7 6 6 5 5 7 6 6 6 6 7 7 7 6 5 5 6 6 5 4 5 4 4 4 4 4 4 4 4 4 4 4 5 4 3 4 4 5 5 4 4 3 3 3 4 3 4 3 4 4 4 4 6
2 2 1 2 3 4 2 5 5 1 5 7 3 4 6 9 1 5 7 11 12 12 9 6 6 6 6 7 7 8 8 10 8 8 9 7 7 8 7 7 6 6 6 7 8 7 7 7 6 5 6 6 6 6 6 6 6 6 7 5 5 5 5 4 4 4 4 4 4 4 4 4 4 5 4 4 4 4 4 4 5 4 5 4 4 4 3 3 5 5 4 5 5 6 5 5 7
1 1 1 4 5 7 1 3 6 0 2 5 6 5 5 7 6 8 11 11 11 8 8 9 9 8 9 9 10 9 9 10 7 8 8 8 8 7 7 6 7 7 7 8 9 9 7 8 8 6 5 6 6 6 6 7 7 6 5 5 5 5 5 4 4 4 4 4 5 5 4 4 4 4 4 5 5 4 4 3 3 4 4 4 5 5 4 4 4 5 4 3 4 4 3 4 5
2 2 3 7 3 9 1 2 3 2 3 5 2 3 7 9 7 7 8 11 13 12 11 11 11 10 9 12 11 10 9 4 7 8 9 9 9 9 7 7 8 10 8 9 9 8 8 9 10 8 6 6 6 6 6 6 5 6 5 5 5 5 6 5 4 4 4 4 5 5 4 4 4 4 4 4 4 5 4 4 4 4 4 3 3 3 3 4 5 5 4 3 3 3 3 4 4
1 3 3 5 7 4 6 5 2 1 4 8 1 2 9 10 7 4 9 16 15 17 17 17 15 11 10 12 11 10 9 10 10 10 8 10 11 11 8 7 6 8 8 7 6 7 8 8 8 8 7 7 6 7 7 6 4 5 5 5 6 4 1 2 4 4 4 5 4 4 4 3 4 4 4 4 5 4 5 5 4 4 4 4 3 3 4 4 5 6 5 5 4 2 2 2 3
3 1 1 9 2 3 6 5 1 1 1 4 6 5 10 9 5 6 11 16 14 16 17 16 16 16 15 17 15 14 14 14 16 15 13 12 11 10 8 8 7 6 6 6 6 7 7 6 7 8 8 6 6 6 6 6 5 4 5 6 5 4 4 3 5 5 5 5 4 4 3 4 4 4 4 4 4 5 5 5 4 4 4 4 5 4 4 4 4 5 5 5 6 4 2 4 2
3 4 5 4 0 4 7 5 4 4 3 2 3 3 7 5 4 3 5 8 6 8 4 3 5 7 7 4 7 11 16 14 12 12 11 13 13 13 11 7 6 6 6 7 6 7 7 8 6 8 7 7 6 6 7 7 7 7 6 6 6 6 5 4 5 5 4 3 3 3 4 3 4 5 4 4 4 5 4 5 5 4 4 4 4 4 4 5 5 5 6 6 6 5 5 3 3
3 6 11 7 5 7 6 2 4 6 5 1 1 4 4 4 6 7 7 2 8 3 10 10 11 10 11 12 12 11 11 12 16 16 15 16 13 9 8 8 7 6 7 6 6 6 8 7 7 7 6 6 7 7 8 8 7 8 8 7 6 5 5 5 5 5 3 4 4 1 2 3 4 4 4 4 4 4 4 4 4 4 4 3 3 4 4 3 4 5 6 6 5 3 4 4 3
0 7 9 11 10 8 6 4 2 1 1 1 2 2 6 4 2 5 5 3 5 1 9 9 10 11 12 12 13 13 14 13 11 9 10 12 11 10 9 9 7 7 5 5 5 6 8 6 7 7 7 6 6 7 7 7 7 7 7 7 7 7 7 2 2 3 5 2 3 3 3 2 2 4 4 3 4 3 4 4 4 4 4 4 2 3 4 5 5 5 4 5 5 5 4 4 5
4 5 10 7 5 5 6 1 4 5 2 4 2 3 3 7 6 3 6 1 3 3 6 9 11 12 12 13 13 14 14 14 14 15 13 13 12 12 12 8 6 6 6 6 5 5 7 7 7 7 6 7 6 7 7 7 8 6 6 6 6 7 7 6 5 4 3 4 5 3 3 2 2 4 5 4 5 5 5 5 4 4 5 5 4 5 5 4 3 2 4 4 4 5 6 6 5
6 3 9 8 10 9 4 4 4 2 1 8 2 0 0 3 5 4 1 3 4 7 9 11 13 14 14 15 13 17 16 15 14 12 14 15 14 11 9 7 6 7 7 7 6 5 4 6 6 6 7 6 5 5 7 6 7 7 7 7 6 3 5 6 5 4 5 4 6 3 4 3 3 3 4 5 5 5 4 5 5 5 4 4 4 4 4 5 6 5 4 4 6 5 5 4 5
5 5 2 2 2 2 4 4 3 1 1 7 4 2 2 6 5 3 3 1 5 7 8 9 12 14 14 14 13 14 12 10 10 12 12 11 9 5 5 7 7 6 6 7 6 5 5 5 6 7 6 6 5 4 5 5 7 7 7 7 8 6 6 5 5 6 5 5 6 4 3 4 3 4 4 3 3 4 4 4 5 4 4 3 3 4 4 4 4 4 5 5 5 6 4 5 6
3 6 3 2 6 3 3 4 2 3 2 9 6 4 2 4 2 3 3 5 3 2 4 5 8 9 10 11 13 11 13 12 10 11 9 7 4 6 7 7 7 6 6 7 6 6 6 6 6 7 6 6 5 5 5 6 6 7 8 8 9 9 7 8 7 5 5 5 7 4 4 4 3 4 3 3 3 3 4 4 5 5 4 4 4 4 4 4 3 3 2 3 4 5 5 5 4
1 0 1 2 1 5 3 3 4 2 5 9 2 4 5 4 3 6 7 5 4 6 9 12 13 13 11 12 9 8 9 10 7 7 7 7 6 5 6 7 7 7 7 7 7 7 7 6 6 7 7 7 6 5 6 6 6 6 7 8 9 10 9 8 8 8 6 6 6 6 4 4 3 3 3 4 3 3 4 4 4 4 5 5 5 4 4 3 3 3 3 3 2 1 4 6 5
4 4 3 2 2 2 1 2 2 5 6 4 2 5 2 5 4 2 6 8 7 8 9 12 15 14 11 10 10 8 7 8 4 3 5 4 1 1 3 5 7 7 7 8 9 8 8 8 8 8 7 7 7 6 6 6 6 6 8 8 8 8 9 8 8 8 6 7 6 6 5 5 3 4 2 4 3 4 5 5 4 5 5 4 4 5 4 4 4 4 3 3 2 4 4 6 6
6 6 5 5 1 1 1 3 1 5 7 4 1 0 1 2 4 3 8 10 8 8 8 5 3 5 6 5 8 9 7 7 7 9 8 4 5 1 3 2 5 6 6 7 9 9 8 8 8 7 6 6 7 6 7 6 5 6 7 8 8 8 8 8 8 8 7 7 7 7 7 7 6 5 4 3 5 4 3 4 5 5 4 5 5 5 5 4 4 4 4 4 3 2 2 4 5
9 3 11 8 8 5 3 3 4 6 8 2 3 2 3 2 3 1 6 8 9 6 7 4 4 6 7 9 9 11 11 11 10 9 9 3 0 2 4 4 5 6 8 5 7 8 9 8 8 8 7 6 7 8 7 7 6 6 6 6 8 7 9 8 8 8 8 7 5 7 5 5 6 5 5 4 3 4 5 5 4 5 4 5 5 5 5 5 4 5 4 4 3 2 2 3 4
1 2 5 6 5 6 3 5 3 2 1 1 1 2 2 2 2 4 1 5 5 4 4 6 7 8 9 11 9 9 9 9 10 11 8 6 6 4 4 5 5 7 7 4 4 7 8 8 7 6 6 7 7 7 7 7 6 5 5 6 6 7 7 7 6 5 6 6 7 6 6 5 4 5 3 3 3 5 6 5 5 5 4 4 4 5 5 5 5 5 4 4 4 3 3 4 3
3 4 5 7 3 8 5 2 2 4 3 1 0 5 4 6 2 2 4 5 6 4 4 5 5 8 10 10 9 8 7 7 2 5 8 8 6 4 4 5 5 8 8 8 5 3 8 9 8 5 4 3 8 5 5 5 6 6 5 6 6 7 9 9 8 7 6 4 5 5 6 5 3 3 4 2 4 3 4 6 6 5 4 3 5 5 6 6 5 5 5 4 4 4 5 5 4
6 2 7 1 3 4 5 4 1 2 2 3 1 1 5 3 1 3 5 6 5 4 4 5 4 3 5 5 7 9 13 13 4 1 3 6 5 5 3 4 4 10 11 8 7 4 7 8 11 8 5 5 7 6 5 5 6 6 6 6 6 8 8 7 7 8 6 6 3 4 4 5 4 3 3 3 3 4 4 4 6 5 4 3 4 5 6 6 6 6 5 5 4 3 5 5 5
6 3 5 4 1 2 3 5 0 0 1 1 2 1 3 3 3 2 5 7 7 8 8 7 8 6 4 3 3 8 7 8 8 6 6 6 6 5 5 5 5 11 10 8 7 7 8 8 9 9 11 10 9 6 4 3 4 6 6 7 6 5 4 6 5 6 6 6 5 4 4 4 5 4 5 4 5 4 4 4 4 5 4 4 4 5 5 6 5 6 5 5 4 4 5 6 4
2 3 3 1 3 2 3 5 3 5 3 2 3 1 3 4 2 1 5 5 4 4 7 9 9 12 11 10 8 3 7 6 8 8 7 5 4 4 6 8 10 11 11 10 10 8 10 9 10 9 8 10 11 11 9 7 4 4 4 4 3 5 6 7 7 8 6 6 6 5 5 4 5 5 5 5 5 5 4 5 4 5 5 4 5 4 5 6 6 5 5 5 4 4 6 5 4
0 1 1 0 2 2 4 1 1 2 4 4 3 1 6 3 2 3 4 5 2 3 5 5 4 9 13 14 10 8 8 8 6 6 7 6 4 2 2 3 5 7 8 9 9 10 10 9 9 9 9 8 9 8 6 6 6 5 6 7 6 5 5 5 6 6 7 6 5 5 5 5 4 4 6 5 5 5 4 5 5 4 5 5 5 4 4 5 6 5 5 5 4 5 6 4 4
4 8 5 7 6 3 2 3 1 2 3 2 3 4 7 4 2 2 3 3 3 2 6 5 7 7 10 13 11 6 4 7 7 4 5 5 6 5 5 4 4 6 7 9 8 8 9 9 10 10 10 8 8 8 9 8 6 7 7 6 6 5 6 6 7 7 7 7 6 5 4 4 4 4 5 6 5 4 3 4 4 5 5 5 5 5 4 5 6 5 4 3 4 5 5 4 4
Wind_Direction
138 142 126 126 54 106 62 1 131 305 68 253 293 186 257 253 260 336 267 326 310 270 281 341 332 168 203 217 163 101 31 147 193 146 215 197 147 128 131 133 134 131 129 130 132 130 132 136 135 132 126 122 122 121 120 120 120 120 119 120 119 118 118 114 112 117 118 119 122 125 131 133 134 133 132 127 121 117 117 115 115 115 113 111 111 113 114 117 118 115 113 112 110 109 109 106 107
131 85 63 310 130 62 244 121 98 358 34 340 244 131 245 236 126 221 198 170 197 275 255 228 77 91 75 91 126 135 47 35 205 146 97 93 107 116 132 135 139 133 132 132 130 128 130 136 134 131 126 124 124 123 122 121 120 120 121 121 120 119 118 116 117 120 121 123 124 125 126 125 125 122 119 118 116 115 115 116 113 112 110 115 114 114 116 119 117 113 112 110 108 107 104 104 102
105 104 49 35 29 78 106 38 264 40 142 251 273 211 268 163 216 262 188 225 247 277 296 292 247 106 14 205 31 18 216 74 92 111 107 138 122 148 141 138 136 132 132 131 129 128 130 133 135 132 128 127 127 126 125 123 122 122 122 121 121 120 121 122 121 121 123 125 124 123 119 117 118 119 116 114 114 115 118 116 117 116 115 113 112 116 120 119 115 113 112 109 105 104 104 105 103
95 38 153 72 70 19 70 30 91 135 173 224 309 259 208 206 287 359 238 256 272 284 288 304 20 296 125 50 102 49 88 132 196 132 133 173 164 142 140 134 132 128 125 127 127 128 131 136 136 133 131 131 130 129 127 126 124 123 124 124 123 125 124 122 121 121 124 127 126 126 125 121 118 117 115 117 115 117 118 118 120 119 116 116 116 119 122 119 115 113 110 108 107 105 103 101 98
86 359 102 103 112 17 105 170 144 113 232 185 208 273 242 230 255 278 267 280 295 278 219 161 32 323 83 114 20 115 207 100 138 186 111 89 124 137 134 133 132 127 124 121 123 127 135 138 136 134 134 134 133 130 128 126 126 127 127 126 125 125 124 123 123 122 124 124 125 122 119 114 115 120 115 108 114 120 122 123 121 117 112 111 115 121 121 118 115 113 112 110 106 103 100 95 92
59 48 357 95 184 184 61 69 260 222 226 148 249 259 221 221 239 268 288 293 279 309 208 83 169 291 20 359 359 88 131 134 165 72 138 146 140 138 135 132 129 125 124 123 128 131 137 138 136 137 136 135 134 132 129 128 128 129 128 127 124 126 126 125 124 124 123 120 122 118 111 110 112 108 99 100 101 111 114 108 105 108 108 108 112 118 121 119 115 112 109 105 101 96 91 86 83
200 52 356 31 15 56 163 159 234 235 264 175 243 277 270 274 268 324 310 337 288 36 11 113 112 102 71 334 10 44 329 152 139 151 142 135 129 134 134 133 131 124 122 124 126 128 137 137 139 138 135 135 134 133 131 129 130 131 129 127 125 126 126 125 125 125 122 120 116 111 108 107 103 99 98 97 103 107 109 110 111 112 112 113 113 117 118 115 113 107 103 101 95 91 86 81 74
96 106 293 103 233 50 121 213 254 148 276 185 243 268 278 277 306 298 288 5 293 27 354 124 101 85 72 17 269 344 4 3 95 94 111 127 129 130 131 132 125 122 124 122 124 130 141 139 140 139 137 136 135 134 134 132 132 132 129 128 128 127 128 126 125 125 122 119 115 112 109 106 102 101 99 98 104 111 113 114 115 117 116 113 114 118 116 112 104 101 100 94 91 87 83 77 69
360 87 251 76 67 39 38 245 257 223 272 277 269 243 269 275 273 265 278 226 296 223 171 141 132 87 129 65 348 332 5 51 92 109 118 122 128 127 124 131 128 126 129 129 131 135 137 143 140 138 138 137 136 137 136 135 132 131 131 131 129 129 129 127 127 124 119 116 113 110 108 106 105 105 106 106 106 109 117 119 121 121 116 117 116 116 113 108 103 97 92 88 85 83 82 77 69
30 97 198 137 130 230 352 280 137 242 227 237 271 284 276 282 280 218 259 285 222 150 153 98 78 114 125 122 227 328 333 98 106 108 115 125 125 121 121 118 127 132 134 139 142 139 141 145 139 138 139 139 138 138 136 133 132 131 130 128 128 126 127 127 125 123 120 115 113 111 109 107 106 108 114 116 113 113 114 117 117 117 118 117 114 112 108 101 96 93 89 84 80 78 78 76 71
33 9 140 79 41 237 224 269 263 299 292 297 293 263 262 267 236 256 214 236 223 174 155 111 72 118 114 91 355 336 63 99 121 125 119 108 104 113 113 116 121 132 139 140 139 139 143 142 141 139 139 138 137 136 132 130 128 125 123 124 124 127 127 125 128 124 121 121 119 115 114 113 114 114 116 121 118 115 117 118 120 120 120 116 112 109 104 99 93 88 85 82 81 80 79 75 72
48 74 29 107 187 172 239 226 275 292 295 296 266 331 258 289 294 256 239 214 179 145 154 156 147 130 94 115 260 62 75 62 62 104 101 89 90 101 111 118 130 131 136 136 135 135 134 141 140 142 141 138 135 132 131 129 127 124 125 126 127 126 126 128 127 127 125 123 123 121 121 122 120 121 118 116 118 117 119 119 122 125 125 119 113 107 100 95 88 83 80 79 80 81 79 76 74
119 97 85 94 224 164 229 287 272 305 320 275 253 306 327 323 326 282 230 189 147 133 132 183 143 148 120 154 90 88 100 63 87 88 84 87 101 108 116 125 133 135 137 131 132 134 135 134 139 139 141 137 133 130 130 126 125 127 129 127 126 128 127 126 125 125 123 118 118 120 123 122 122 122 119 119 118 119 116 116 121 126 126 123 112 105 100 93 84 81 78 77 76 80 80 76 74
117 177 122 178 91 203 166 239 286 343 292 257 252 303 329 326 330 335 136 110 158 111 225 142 127 112 81 100 130 140 125 108 103 93 91 94 105 118 129 128 129 130 129 136 136 134 130 127 128 135 137 132 132 135 131 128 129 130 128 129 130 128 127 126 127 125 122 122 125 126 125 121 120 121 121 120 118 116 113 112 113 118 122 121 111 107 98 86 82 78 75 74 73 73 78 78 77
109 161 83 120 260 37 248 137 228 150 261 22 305 4 338 358 342 38 58 71 65 211 109 71 135 99 190 163 172 183 158 133 117 112 104 104 107 117 121 122 119 119 125 128 124 122 120 125 127 127 126 121 120 121 131 133 133 133 132 132 130 128 127 130 130 126 127 129 126 128 124 121 119 116 115 117 119 114 111 111 114 116 117 111 105 103 95 89 83 76 72 69 68 69 72 72 75
152 82 86 135 254 179 266 142 222 350 267 141 293 324 3 333 19 29 338 212 178 37 53 151 23 148 169 174 178 151 140 125 120 114 117 120 116 112 117 116 115 113 116 122 125 121 128 124 118 120 119 120 120 122 132 137 138 135 134 132 131 133 134 134 134 133 133 134 134 127 123 119 115 115 116 117 114 110 105 102 103 100 99 97 100 93 86 85 79 73 70 67 65 64 66 71 75
62 79 79 53 264 167 253 171 150 216 256 276 307 13 14 337 313 118 45 37 88 12 59 13 328 339 138 148 129 130 128 123 118 117 123 126 131 134 131 130 122 115 118 125 131 130 127 129 129 126 123 123 124 125 127 136 141 137 135 134 135 137 139 139 137 138 135 132 124 115 104 99 97 100 107 111 110 108 111 110 106 106 102 98 97 96 85 76 76 78 77 67 63 68 70 69 73
64 127 115 252 214 161 208 179 189 218 314 314 346 335 16 335 349 311 76 26 29 59 56 45 59 56 96 104 110 122 129 129 135 138 139 135 140 142 146 145 140 139 138 136 130 131 134 130 123 123 123 126 128 128 129 135 144 132 126 127 132 138 142 140 135 133 130 118 116 109 107 103 100 107 113 113 111 115 113 111 107 105 102 99 96 90 83 79 79 84 79 74 76 78 77 67 52
110 119 112 226 195 234 162 199 222 345 297 298 309 333 24 297 327 305 75 2 334 45 70 91 92 100 97 107 117 130 136 137 144 147 147 148 152 155 156 150 148 143 147 142 136 135 137 123 118 121 122 127 128 127 129 131 126 112 114 121 131 134 132 126 99 108 86 104 108 111 108 106 109 108 112 123 121 121 113 111 108 106 104 102 101 95 91 87 83 74 76 82 78 74 68 64 67
223 117 214 245 183 232 205 222 277 235 260 297 325 321 352 289 280 264 120 151 316 242 139 124 132 135 133 130 131 138 144 145 155 154 153 153 157 158 160 153 151 155 150 146 145 142 139 124 123 124 128 135 137 134 132 128 123 118 122 115 112 105 104 100 98 101 103 108 109 107 109 106 98 102 127 122 109 94 109 109 108 104 99 95 80 68 71 85 70 65 71 72 70 67 71 65 77
269 104 207 245 179 234 280 300 233 266 282 289 304 312 331 310 272 77 134 105 246 252 238 175 161 153 148 146 144 148 149 155 160 164 158 156 158 158 160 158 156 152 149 140 138 140 130 131 136 136 138 140 142 136 135 131 125 123 116 112 107 103 99 97 102 104 112 112 109 106 106 105 97 88 71 76 82 89 79 74 69 74 74 70 76 74 61 52 49 45 37 55 54 68 74 69 81
120 219 252 180 333 320 258 256 270 265 276 308 307 333 290 297 356 119 158 180 213 216 215 214 162 152 149 153 156 153 156 160 166 163 158 153 149 154 142 133 131 133 140 136 137 136 136 139 145 144 141 146 144 138 134 135 129 122 111 117 109 108 111 109 108 113 114 115 115 114 106 101 97 92 87 89 86 92 86 89 85 85 76 79 87 92 71 62 52 32 44 60 53 60 72 75 69
235 290 259 243 240 258 280 289 276 282 315 311 314 263 321 2 296 238 185 210 224 198 129 154 169 162 154 140 147 154 156 166 168 164 157 151 153 150 151 145 145 147 152 138 136 142 139 142 148 150 147 144 140 130 131 127 120 113 114 121 120 117 119 117 119 115 121 124 120 122 116 107 101 102 101 96 98 93 91 89 95 82 87 90 102 101 74 60 58 44 52 65 61 71 68 62 83
200 251 299 312 191 222 249 264 283 303 263 271 253 341 305 308 312 235 171 236 309 115 118 140 147 142 145 146 155 158 158 164 169 164 164 165 155 155 156 150 148 139 149 140 140 141 148 148 152 153 147 144 138 130 121 120 113 119 133 134 122 131 124 125 124 127 127 122 119 112 112 111 117 111 109 109 109 102 104 96 100 100 99 98 104 105 101 64 62 55 52 46 56 51 76 54 63
214 261 288 263 243 235 256 265 281 279 268 254 289 302 273 164 236 78 250 283 91 110 120 132 140 135 148 143 147 151 162 166 160 164 155 124 129 133 132 136 139 145 151 144 140 143 148 155 155 153 149 140 135 127 121 118 124 133 130 127 133 137 122 131 132 133 123 118 105 110 116 110 104 111 113 115 109 104 111 113 101 107 106 102 92 80 108 116 77 50 59 49 51 49 43 47 63
223 239 261 270 271 281 278 298 280 274 281 243 310 278 282 243 209 253 242 321 125 119 121 138 137 142 151 162 153 154 158 165 160 163 149 134 138 141 142 149 148 158 160 138 148 153 144 155 161 155 148 133 125 126 125 134 143 142 133 135 137 130 133 129 131 126 130 117 103 96 98 115 121 124 119 111 118 121 118 108 105 117 121 109 99 108 124 123 125 92 62 62 63 47 45 28 52
180 220 219 244 260 294 304 227 282 298 264 241 265 279 308 345 140 281 19 114 126 124 138 150 146 155 160 160 165 158 118 59 1 94 136 150 157 156 149 151 156 161 161 146 157 163 158 161 163 153 147 142 133 135 142 142 147 135 134 135 120 132 136 134 127 125 115 101 103 101 100 112 119 122 126 130 123 128 127 116 111 109 119 115 112 115 126 122 114 110 89 82 58 52 46 31 44
237 245 303 285 290 272 250 301 274 302 302 211 201 254 328 262 77 233 178 137 139 138 155 158 157 160 156 160 161 142 137 124 102 40 28 27 6 159 154 162 160 163 167 166 167 163 168 173 154 150 155 155 145 145 149 147 145 138 136 126 127 132 135 127 125 126 113 101 107 113 118 118 124 125 132 136 135 134 127 118 105 123 134 104 126 134 123 110 114 100 93 86 74 65 61 48 47
274 342 287 290 346 333 282 226 265 147 264 201 162 338 313 359 205 252 143 139 141 143 157 165 165 162 159 154 143 119 84 75 129 157 181 172 178 169 198 184 167 166 168 174 174 174 179 174 153 156 156 156 153 158 157 153 136 140 144 135 134 132 134 127 122 125 110 111 114 120 128 127 126 129 133 141 144 145 143 144 141 140 131 128 130 134 128 117 98 90 78 82 77 72 66 45 51
350 70 164 336 355 336 287 287 334 167 260 142 141 290 273 267 252 243 141 141 139 146 159 167 168 168 157 157 142 124 134 148 193 222 193 186 177 171 173 183 181 176 173 183 178 187 175 152 143 154 160 158 158 154 147 140 143 142 139 128 129 118 120 126 124 114 126 117 114 120 125 129 136 141 142 137 132 139 142 157 158 143 139 129 126 131 126 132 125 120 114 103 81 70 63 33 49
225 255 81 261 10 286 285 328 316 174 245 183 154 210 285 273 286 215 156 149 154 162 166 171 172 171 151 150 153 144 143 157 347 316 257 224 208 180 173 176 177 174 181 183 190 187 166 153 154 159 163 159 160 152 152 150 143 140 133 125 120 118 117 121 130 126 122 126 124 125 130 138 142 145 150 146 142 133 135 133 150 147 133 136 121 128 134 124 124 124 123 111 80 65 65 52 50
347 14 292 336 155 277 309 322 185 214 323 65 111 352 245 266 304 205 168 157 164 160 172 177 174 168 152 160 155 149 133 128 170 230 251 229 214 199 183 175 178 181 185 181 180 173 167 156 161 157 162 158 151 153 150 143 138 127 126 126 119 123 126 126 136 140 131 126 129 130 141 141 138 139 138 138 136 139 141 155 151 142 147 127 117 131 142 133 124 105 60 118 109 81 74 61 56
355 103 293 306 45 256 342 309 356 253 270 357 172 234 325 322 247 178 178 164 172 168 176 180 175 165 157 153 150 143 137 152 189 208 208 209 212 209 208 192 180 179 177 176 176 169 164 155 161 158 158 153 147 146 136 127 121 126 127 119 123 123 130 130 133 132 130 129 132 141 147 142 130 133 137 137 134 142 139 137 150 151 146 136 138 132 126 129 131 115 76 75 83 114 94 94 74
320 5 215 211 262 275 285 303 49 17 58 328 355 215 255 241 308 213 178 186 172 184 186 183 172 163 155 150 161 159 156 163 191 202 193 195 201 185 188 195 193 179 179 176 171 166 157 151 150 151 144 141 139 137 134 126 120 117 115 119 122 119 121 127 135 136 136 139 139 145 150 146 151 146 140 138 130 141 143 143 150 155 142 138 126 124 117 115 112 118 108 62 78 98 108 106 90
215 330 359 325 330 213 228 156 266 4 20 27 338 295 276 285 134 198 188 185 188 198 195 185 171 160 153 163 173 173 168 180 194 183 182 191 190 185 186 186 184 176 174 175 166 156 131 126 120 141 144 134 129 126 126 118 116 106 108 119 115 113 113 117 132 131 141 139 142 146 152 158 160 157 148 145 136 144 139 150 156 152 142 133 127 129 131 118 110 98 118 91 66 82 112 101 103
148 168 183 190 279 271 171 245 288 33 328 333 260 229 269 281 186 220 206 192 198 205 195 175 162 154 152 168 179 175 181 198 186 170 175 186 182 185 182 176 167 165 170 174 170 158 135 125 134 128 137 137 127 121 122 122 123 129 125 116 108 109 115 125 127 136 141 143 152 156 160 161 163 160 154 143 143 142 152 162 157 155 141 141 142 145 154 145 129 119 116 114 97 80 72 97 104
99 142 161 224 244 270 211 225 256 166 333 258 254 225 248 269 243 200 200 198 214 206 193 187 184 171 172 179 185 180 186 200 181 174 171 178 179 183 180 163 161 158 171 181 175 167 140 137 146 152 139 138 136 135 136 138 138 133 123 128 117 123 130 129 139 148 147 154 155 157 162 167 155 150 144 138 144 147 130 132 145 143 127 137 153 169 164 143 139 125 117 94 109 102 81 101 106
223 282 262 279 213 269 241 280 248 211 180 288 277 295 275 254 259 208 189 195 205 204 200 196 187 181 180 184 182 178 185 152 176 185 175 174 183 186 179 167 160 166 181 187 181 161 140 139 158 157 145 146 144 144 142 143 151 153 145 142 128 134 140 143 148 162 150 139 140 148 154 150 142 148 143 137 140 143 141 150 162 152 131 147 152 155 145 140 132 132 129 95 60 115 121 150 162
115 201 259 281 271 253 275 245 276 263 124 249 320 290 272 268 263 212 176 191 204 205 194 194 186 175 180 187 181 171 167 186 191 192 174 178 185 188 183 172 170 174 175 190 165 145 144 141 152 155 156 148 147 149 150 145 138 138 138 138 136 118 67 142 135 133 121 110 113 127 132 132 139 143 146 143 144 155 156 155 166 154 151 153 143 139 133 138 155 152 153 139 127 80 107 176 184
173 201 245 254 234 348 302 295 14 347 206 279 274 287 279 284 288 227 203 192 209 206 199 196 186 181 180 188 180 181 182 187 194 188 180 181 190 189 184 179 168 158 166 174 155 151 148 143 156 153 156 148 147 153 142 133 128 114 97 114 98 115 144 111 85 91 90 95 92 108 123 142 148 153 156 150 148 155 158 162 154 157 156 164 157 152 158 162 164 151 134 142 140 136 147 191 203
267 198 222 255 203 222 188 259 331 302 303 214 282 305 305 321 335 307 257 244 248 227 175 136 202 207 193 138 155 188 191 190 185 181 180 185 193 195 188 170 149 163 169 173 158 154 157 160 160 153 150 151 150 144 138 133 118 97 97 89 97 89 77 75 84 53 62 94 89 115 147 151 154 154 156 150 147 152 151 145 155 148 146 161 150 148 167 184 188 170 155 149 171 154 167 175 176
297 227 207 212 212 244 248 294 8 16 328 302 157 6 299 297 288 266 312 210 230 195 169 188 180 176 166 176 184 191 196 189 188 190 183 187 192 183 179 172 158 164 167 172 162 155 164 159 143 140 136 142 150 146 146 141 138 133 134 136 129 104 105 114 131 144 128 137 170 190 116 153 155 144 144 145 143 141 144 143 136 138 154 162 172 169 164 148 176 166 179 163 157 196 149 143 173
205 273 194 207 214 222 247 244 87 285 224 307 49 113 274 326 336 314 310 286 242 289 190 180 172 172 173 182 186 186 188 185 193 194 192 192 191 186 187 184 159 160 159 152 161 162 166 137 137 141 144 146 150 148 148 137 134 144 153 150 143 144 140 163 110 125 148 143 114 128 129 82 99 127 125 136 141 138 133 140 141 150 163 171 170 146 169 192 190 193 154 157 167 142 128 157 176
241 237 169 190 201 221 238 175 173 238 258 287 42 122 196 305 295 291 280 241 234 214 197 179 181 176 181 185 185 187 187 187 188 189 189 195 193 190 193 175 144 147 147 149 160 160 164 145 138 141 142 145 153 148 145 145 141 146 134 133 133 135 150 151 147 127 108 127 115 112 105 72 69 105 127 132 144 142 141 139 144 152 166 176 172 189 189 187 168 182 178 167 143 161 163 162 176
219 225 158 171 185 204 193 165 192 226 2 285 328 247 117 255 266 316 54 119 219 219 198 193 186 186 187 185 184 191 190 188 187 182 187 194 192 190 188 150 127 130 151 160 158 151 136 136 130 133 138 139 146 146 138 139 137 145 140 134 127 129 127 126 118 114 122 119 107 88 93 88 69 62 84 122 144 145 146 145 142 138 145 163 163 161 169 168 172 170 171 162 170 157 173 161 154
271 156 139 93 94 92 144 148 144 293 89 275 254 215 195 285 282 345 349 75 230 220 215 202 191 190 188 185 186 190 186 181 188 193 197 195 184 165 117 117 125 126 142 144 140 134 134 142 139 135 136 134 137 131 127 130 137 138 134 138 132 121 113 106 117 120 121 125 116 112 112 97 84 67 54 65 109 130 132 129 121 126 131 131 122 140 137 145 170 180 184 184 173 163 149 164 176
118 104 112 31 42 34 41 75 97 72 290 253 238 216 171 280 271 209 127 231 210 258 217 208 195 197 197 190 188 180 182 180 183 189 193 187 145 120 122 129 130 122 133 143 145 148 144 149 154 139 136 132 134 137 132 138 142 144 141 143 140 136 138 131 121 115 119 117 119 117 115 104 73 79 75 66 83 118 118 118 124 128 124 121 124 132 157 164 173 162 148 158 176 174 145 137 112
220 12 117 60 335 13 37 347 44 151 264 259 285 200 149 180 287 280 250 272 237 228 215 196 195 195 188 186 176 166 164 171 175 183 175 166 158 138 123 126 128 131 136 144 150 152 156 152 157 147 135 138 134 135 131 143 145 145 142 146 146 146 146 143 142 147 151 140 134 127 113 102 85 67 66 86 79 108 120 115 117 111 110 113 109 121 118 112 108 103 106 134 168 92 115 129 137
125 83 59 130 265 46 293 11 234 220 217 248 96 130 89 225 216 242 292 275 264 242 235 211 200 194 187 178 167 143 141 143 133 77 50 26 28 103 130 132 124 131 142 148 152 157 157 153 160 160 149 140 138 140 139 145 144 144 146 151 148 148 146 143 144 143 153 143 143 132 135 138 132 101 82 103 121 143 140 127 125 120 108 106 117 106 96 102 115 111 115 103 122 161 158 143 147
131 158 159 106 134 58 245 267 215 314 285 249 33 208 246 242 296 241 286 290 272 249 249 254 251 217 185 113 135 132 112 113 98 86 84 221 233 118 156 151 138 138 133 148 151 156 152 153 160 161 153 144 136 137 138 138 146 146 153 152 150 146 145 146 149 149 162 157 156 153 156 159 160 166 166 166 170 145 127 130 124 111 110 114 111 107 102 100 104 111 118 123 136 150 121 149 139
197 127 155 183 146 161 215 199 209 219 213 283 296 126 233 154 228 254 274 291 299 268 219 208 124 131 154 137 129 127 125 128 128 140 175 178 48 113 152 161 154 141 132 155 147 147 140 145 156 155 149 153 141 139 137 138 145 148 154 153 152 151 147 149 155 155 156 155 163 150 157 156 154 176 168 167 156 136 132 120 122 115 117 118 118 104 94 86 87 87 73 77 58 38 74 88 94
211 168 59 86 222 141 194 205 164 252 277 300 355 190 154 183 253 281 294 332 9 26 79 102 119 125 133 135 130 136 138 136 153 169 156 139 121 128 140 158 159 134 111 73 84 120 131 136 145 156 159 152 140 128 131 136 139 141 143 146 154 145 138 136 138 145 151 153 155 155 156 164 168 154 162 132 147 143 136 124 110 108 109 112 107 109 102 93 91 94 84 76 70 32 64 70 54
232 106 179 212 163 117 78 78 53 108 54 241 344 325 301 301 357 304 11 356 47 39 67 81 116 138 141 141 134 115 62 39 311 171 153 136 125 137 148 154 156 110 88 71 27 100 128 132 131 129 126 127 100 102 106 115 129 134 142 146 149 146 148 152 154 156 153 149 147 148 145 150 141 145 135 121 120 113 126 129 120 108 92 98 99 92 92 90 88 84 90 83 71 49 75 62 41
92 174 235 110 95 117 129 207 354 72 166 251 40 266 305 24 223 319 45 27 47 75 68 76 65 121 145 145 136 126 141 167 157 336 92 115 126 134 132 136 139 117 122 160 133 135 117 125 141 148 128 94 88 97 93 122 138 139 148 159 168 162 156 148 146 147 140 130 108 102 103 127 149 137 119 106 102 109 107 109 116 103 95 82 97 86 85 89 92 83 85 80 66 67 85 63 46
150 201 173 115 263 223 320 95 244 144 259 266 329 279 262 172 249 9 45 19 16 22 35 50 42 6 16 13 58 104 115 111 122 136 133 121 131 150 147 142 140 122 138 137 124 127 114 108 101 108 110 101 93 85 82 100 149 150 159 167 162 142 132 139 140 133 132 133 139 139 145 142 126 130 120 115 104 101 103 92 101 108 95 93 81 84 88 80 82 87 66 66 39 50 74 67 27
30 101 81 325 106 156 130 197 169 123 221 67 292 31 248 221 205 347 326 352 21 59 43 62 60 61 52 26 3 21 89 106 117 123 116 111 110 137 160 155 150 144 142 141 136 131 124 122 125 131 126 126 132 145 157 157 152 139 137 128 144 149 151 148 146 140 137 143 153 147 141 142 157 139 129 124 118 122 123 116 109 115 105 89 85 72 85 93 82 77 81 67 35 66 72 67 52
33 105 302 15 37 214 105 31 81 174 169 176 163 304 277 274 251 322 331 323 18 96 83 71 63 74 75 65 41 19 35 50 59 100 108 111 105 83 51 60 102 123 129 133 138 139 135 126 128 139 142 142 144 156 138 134 135 144 153 160 151 139 140 142 138 129 132 147 153 155 157 152 139 143 134 125 123 129 135 135 134 133 127 119 110 92 80 95 90 84 66 83 59 67 78 53 69
168 160 194 172 119 128 153 252 19 89 97 200 130 236 268 266 288 355 340 335 60 86 109 80 81 84 97 88 68 42 38 50 66 38 100 114 114 112 105 96 86 107 131 143 134 120 115 125 148 158 155 163 152 156 151 149 153 154 152 136 128 132 149 148 138 136 144 152 159 152 145 140 153 161 138 129 123 132 141 146 140 138 125 122 119 113 108 103 107 99 83 68 83 86 84 62 71